{"data":{"norad_id":60117,"intl_designator":"2024-118E","name":"STARLINK-11203 [DTC]","alt_names":[],"object_type":"PAYLOAD","status":"ACTIVE","operator":null,"country":"US","launch_date":"2024-06-24","launch_site_code":"AFWTR","launch_vehicle":null,"mission":null,"orbit_class":"UNKNOWN","rcs_meters":null,"size_class":null,"mass_kg":null,"dimensions":null,"purposes":["comms"],"wikipedia_slug":null,"has_3d_model":false,"image_url":null,"decayed_at":null,"tle_current":{"epoch":"2026-05-25T03:59:30.136128Z","epoch_age_seconds":67599,"freshness":"FRESH","line1":"1 60117U 24118E   26145.16632102  .00010315  00000+0  90082-4 0  9992","line2":"2 60117  53.1579 204.3465 0001119 116.6014 243.5118 15.69658919110007","mean_motion":15.69658919,"eccentricity":0.0001119,"inclination_deg":53.1579,"raan_deg":204.3465,"arg_perigee_deg":116.6014,"mean_anomaly_deg":243.5118,"bstar":9.0082e-5,"rev_number":11000,"period_min":91.7396755798,"perigee_km":359.11894534207,"apogee_km":360.62691196411,"semimajor_km":6738.0099286531,"source":"CELESTRAK","updated_at":"2026-05-25T13:38:19.166058Z"}}}